Weather History for Athens, OH

Change the Weather History Date:

Thursday, October 4, 2012

  Actual Average (KPKB) Record (KPKB)
Temperature  
Mean Temperature 64 °F 59 °F  
Max Temperature 75 °F 70 °F 90 °F (1951)
Min Temperature 53 °F 48 °F 30 °F (1987)
Degree Days  
Heating Degree Days 1 7  
Month to date heating degree days 26  
Cooling Degree Days 0 1  
Month to date cooling degree days 4  
Growing Degree Days 14 (Base 50)    
Moisture  
Dew Point 54 °F    
Average Humidity 75    
Maximum Humidity 96    
Minimum Humidity 45    
Precipitation  
Precipitation 0.00 in 0.09 in 0.47 in (2006)
Month to date precipitation 0.35  
Sea Level Pressure  
Sea Level Pressure 30.19 in    
Wind  
Wind Speed 3 mph (WSW)    
Max Wind Speed 15 mph    
Max Gust Speed 21 mph    
Visibility 10 miles    
Events      
T = Trace of Precipitation, MM = Missing Value Source: NWS Daily Summary

Daily Weather History Graph

Daily Weather History Graph

Search for Another Location

Airport:

Trip Planner

Search our weather history database for the weather conditions in past years. The results will help you decide how hot, cold, wet, or windy it might be!

Date:

Astronomy

Oct. 04, 2012 Rise Set
Actual Time 7:28 AM EDT 7:06 PM EDT
Civil Twilight 7:01 AM EDT 7:32 PM EDT
Nautical Twilight 6:30 AM EDT 8:03 PM EDT
Astronomical Twilight 5:59 AM EDT 8:34 PM EDT
Moon 9:42 PM EDT (10/4) 11:42 AM EDT (10/4)
Length of Visible Light 12h 31m
Length of Day
11h 37m
Waning Gibbous, 82% of the Moon is Illuminated
Oct 4
Waning Gibbous
Oct 8
Last Quarter
Oct 15
New
Oct 21
First Quarter
Oct 29
Full

Hourly Weather History & Observations

Time (EDT) Temp. Dew Point Humidity Pressure Visibility Wind Dir Wind Speed Gust Speed Precip Events Conditions
12:15 AM 56.8 °F 54.5 °F 92% 30.16 in 10.0 mi Calm Calm - N/A   Clear
12:35 AM 56.5 °F 54.5 °F 93% 30.17 in 10.0 mi Calm Calm - N/A   Clear
12:55 AM 56.5 °F 54.5 °F 93% 30.17 in 10.0 mi Calm Calm - N/A   Clear
1:15 AM 56.5 °F 54.7 °F 94% 30.17 in 10.0 mi Calm Calm - N/A   Clear
1:35 AM 55.8 °F 54.0 °F 94% 30.17 in 10.0 mi Calm Calm - N/A   Clear
1:55 AM 55.4 °F 53.8 °F 94% 30.17 in 10.0 mi Calm Calm - N/A   Scattered Clouds
2:15 AM 55.6 °F 54.1 °F 95% 30.18 in 10.0 mi Calm Calm - N/A   Scattered Clouds
2:35 AM 55.6 °F 54.1 °F 95% 30.18 in 10.0 mi Calm Calm - N/A   Scattered Clouds
3:15 AM 55.4 °F 53.8 °F 94% 30.18 in 10.0 mi Calm Calm - N/A   Clear
3:35 AM 55.6 °F 54.1 °F 95% 30.18 in 10.0 mi Calm Calm - N/A   Clear
3:55 AM 55.0 °F 53.6 °F 95% 30.17 in 10.0 mi Calm Calm - N/A   Clear
4:15 AM 54.9 °F 53.6 °F 96% 30.17 in 10.0 mi Calm Calm - N/A   Clear
4:35 AM 54.5 °F 53.4 °F 96% 30.17 in 10.0 mi Calm Calm - N/A   Clear
4:55 AM 55.4 °F 54.0 °F 95% 30.19 in 10.0 mi Calm Calm - N/A   Clear
5:35 AM 54.5 °F 53.1 °F 95% 30.19 in 10.0 mi Calm Calm - N/A   Clear
5:55 AM 54.7 °F 53.4 °F 96% 30.19 in 10.0 mi Calm Calm - N/A   Clear
6:15 AM 55.0 °F 53.6 °F 95% 30.20 in 10.0 mi Calm Calm - N/A   Clear
6:35 AM 54.3 °F 53.1 °F 95% 30.20 in 10.0 mi Calm Calm - N/A   Clear
6:55 AM 54.5 °F 53.1 °F 95% 30.21 in 10.0 mi Calm Calm - N/A   Clear
7:15 AM 54.0 °F 52.7 °F 95% 30.21 in 10.0 mi Calm Calm - N/A   Clear
7:35 AM 53.8 °F 52.7 °F 96% 30.21 in 10.0 mi Calm Calm - N/A   Clear
7:55 AM 53.8 °F 52.7 °F 96% 30.22 in 10.0 mi Calm Calm - N/A   Clear
8:15 AM 53.6 °F 52.3 °F 95% 30.22 in 10.0 mi Calm Calm - N/A   Clear
8:35 AM 54.0 °F 52.7 °F 95% 30.23 in 10.0 mi Calm Calm - N/A   Clear
8:55 AM 54.9 °F 53.6 °F 96% 30.23 in 10.0 mi Calm Calm - N/A   Clear
9:15 AM 58.3 °F 55.8 °F 91% 30.23 in 10.0 mi Calm Calm - N/A   Clear
9:35 AM 60.6 °F 55.9 °F 85% 30.23 in 10.0 mi SW 3.5 mph - N/A   Clear
9:55 AM 62.4 °F 55.9 °F 79% 30.23 in 10.0 mi WSW 5.8 mph - N/A   Clear
10:15 AM 64.2 °F 55.6 °F 73% 30.23 in 10.0 mi WSW 8.1 mph - N/A   Clear
10:35 AM 66.2 °F 55.2 °F 68% 30.24 in 10.0 mi SW 6.9 mph - N/A   Clear
10:55 AM 67.6 °F 55.6 °F 65% 30.23 in 10.0 mi WSW 4.6 mph - N/A   Clear
11:15 AM 69.1 °F 55.6 °F 62% 30.23 in 10.0 mi WSW 6.9 mph - N/A   Clear
11:35 AM 70.0 °F 54.7 °F 58% 30.23 in 10.0 mi WSW 8.1 mph - N/A   Clear
12:15 PM 71.2 °F 53.6 °F 54% 30.23 in 10.0 mi West 12.7 mph 20.7 mph N/A   Clear
12:35 PM 72.5 °F 54.0 °F 52% 30.22 in 10.0 mi WSW 15.0 mph 19.6 mph N/A   Clear
12:55 PM 73.0 °F 54.5 °F 52% 30.22 in 10.0 mi WSW 10.4 mph - N/A   Clear
1:15 PM 73.0 °F 53.6 °F 50% 30.21 in 10.0 mi West 8.1 mph - N/A   Clear
1:35 PM 72.1 °F 53.2 °F 51% 30.21 in 10.0 mi West 12.7 mph 20.7 mph N/A   Scattered Clouds
1:55 PM 74.7 °F 53.2 °F 47% 30.20 in 10.0 mi WSW 12.7 mph 18.4 mph N/A   Scattered Clouds
2:15 PM 73.8 °F 53.1 °F 48% 30.19 in 10.0 mi SW 8.1 mph - N/A   Scattered Clouds
2:35 PM 74.3 °F 52.7 °F 47% 30.19 in 10.0 mi WSW 8.1 mph 17.3 mph N/A   Scattered Clouds
2:55 PM 74.3 °F 53.2 °F 48% 30.18 in 10.0 mi West 8.1 mph - N/A   Scattered Clouds
3:15 PM 75.4 °F 53.2 °F 46% 30.18 in 10.0 mi West 10.4 mph - N/A   Scattered Clouds
3:35 PM 73.9 °F 51.1 °F 45% 30.17 in 10.0 mi WSW 15.0 mph 19.6 mph N/A   Scattered Clouds
3:55 PM 72.7 °F 52.0 °F 48% 30.17 in 10.0 mi WSW 9.2 mph - N/A   Mostly Cloudy
4:15 PM 74.7 °F 52.5 °F 46% 30.17 in 10.0 mi WSW 11.5 mph - N/A   Mostly Cloudy
4:35 PM 75.0 °F 53.1 °F 46% 30.17 in 10.0 mi WSW 11.5 mph 16.1 mph N/A   Scattered Clouds
4:55 PM 74.7 °F 52.0 °F 45% 30.16 in 10.0 mi SW 15.0 mph - N/A   Clear
5:15 PM 73.8 °F 52.9 °F 48% 30.16 in 10.0 mi WSW 8.1 mph - N/A   Scattered Clouds
5:35 PM 74.8 °F 53.6 °F 47% 30.16 in 10.0 mi West 13.8 mph 18.4 mph N/A   Scattered Clouds
5:55 PM 73.8 °F 53.1 °F 48% 30.16 in 10.0 mi WSW 12.7 mph 17.3 mph N/A   Scattered Clouds
6:15 PM 72.9 °F 52.9 °F 49% 30.16 in 10.0 mi SW 5.8 mph - N/A   Clear
6:35 PM 72.0 °F 52.9 °F 51% 30.16 in 10.0 mi SW 6.9 mph - N/A   Clear
6:55 PM 70.9 °F 53.1 °F 53% 30.16 in 10.0 mi SSW 3.5 mph - N/A   Clear
7:15 PM 69.3 °F 53.6 °F 57% 30.17 in 10.0 mi SSW 3.5 mph - N/A   Clear
7:35 PM 65.8 °F 54.5 °F 67% 30.17 in 10.0 mi SSW 4.6 mph - N/A   Clear
7:55 PM 65.5 °F 54.3 °F 67% 30.17 in 10.0 mi Calm Calm - N/A   Clear
8:15 PM 63.7 °F 54.5 °F 72% 30.17 in 10.0 mi Calm Calm - N/A   Clear
8:55 PM 61.3 °F 54.9 °F 79% 30.17 in 10.0 mi Calm Calm - N/A   Clear
9:15 PM 60.6 °F 54.3 °F 80% 30.17 in 10.0 mi Calm Calm - N/A   Clear
9:35 PM 59.0 °F 54.3 °F 84% 30.17 in 10.0 mi Calm Calm - N/A   Clear
10:15 PM 58.3 °F 54.7 °F 88% 30.17 in 10.0 mi Calm Calm - N/A   Clear
10:35 PM 56.8 °F 53.6 °F 89% 30.17 in 10.0 mi Calm Calm - N/A   Clear
11:15 PM 56.1 °F 53.1 °F 89% 30.17 in 10.0 mi Calm Calm - N/A   Clear
11:35 PM 56.3 °F 53.6 °F 91% 30.17 in 10.0 mi Calm Calm - N/A   Clear
11:55 PM 56.3 °F 53.2 °F 89% 30.17 in 10.0 mi Calm Calm - N/A   Clear